TJS-3 AKM, 43917

Orbit data source: Space-Track

TJS-3 AKM, 43917 is space debris in GEO originally from a launch on Mon, 24 Dec 2018 UTC via a CHANG ZHENG 3C launch vehicle from the Xichang Space Center, China (XSC). Debris objects in space refer to the collection of defunct objects orbiting the Earth. Examples of debris include non-operational satellites, rocket bodies, and fragments generated from explosions, collisions, or faulty payload assembly.

Loading next visibility...
Identifier
43917, 2018-110C
Orbit
GEO
Country
Flag of CNCN / PRC
Related business
Manufacturer
CAST
Mission
Non-operational Defense Technology
Bus & Motor
Unknown
Mass
~500 kg wet, ~500 kg dry
Launch date (UTC)
2018-12-24 (8 years ago)
Launch vehicle
CHANG ZHENG 3C
Launch site
Xichang Space Center, China (XSC)
Object type
Payload
Rocket body
Debris
Shape & HBR
Box, 0.5 m
Radar Cross Section
1.500 m², Large (>1 m²)

Expand to show TLE details & history
Last TLE update: 11 hours ago

TLE from 11 hours ago
0 TJS-3 AKM
1 43917U 18110C   26202.23767385  .00000013  00000-0  00000-0 0  9992
2 43917   4.7667  78.0137 0006050 117.2293  77.4010  0.98353976 27376
Epoch: 2026-07-21T05:42Z
TLE epoch observation values (Epoch: 2026-07-21T05:42:15.020Z)
Latitude
-1.21884°
Longitude
-111.89454°
Altitude
36,327.071 km
Speed
3.055 km/s
True Right ascension
18h 10m 42s
True Declination
-1° 13' 03"
Sunlit
Object was in daylight at epoch
Visualization orbit readout
Latitude
Unknown
Longitude
Unknown
Altitude
Unknown
Speed
Unknown
Apparent Right ascension
Unknown
Apparent Declination
Unknown
Sunlit
N/A
Visualization observer readout
Local Sidereal Time
05:43:32
Azimuth
Unknown
Elevation
Unknown
Doppler factor
Unknown
Orbital elements
Apogee altitude
36,359.831 km
Perigee altitude
36,308.15 km
Semi-major axis
42,712.127 km
Eccentricity
0.00061
Inclination
4.7667°
RAAN
78.0137°
Arg. of periapsis
117.2293°
True anomaly
77.46867°
Mean anomaly
77.401°
Eccentric anomaly
77.43483°
Mean motion
0.24588 °/min
Orbital period
1,464.15 mins
BSTAR
0
Loading maneuver chart data...
Computing Atmospheric mass density...
Loading historical data...
Loading historical data...
Loading historical data...
Loading historical data...
Loading historical data...
Loading historical data...
Loading historical data...
Other satellites on launch #110 in the year 2018 (2018-12-24 UTC)

Documentation

Showing up to 5 results
|